GW0762 Weather Reports


time (UTC)temp
C
wind
direction
speed
KPH
gust
KPH
rain 1hr
cm
rain 24hr
cm
rain mn
cm
humidity
%
barometer
mb
20260508151601 18 0 1.6 12.9 0.00 0.00 0.00 43 1016.1
20260508150123 18 360 1.6 16.1 0.00 0.00 0.00 46 1016.1
20260508144604 17 323 3.2 16.1 0.00 0.00 0.00 48 1016.3
20260508143059 16 360 1.6 12.9 0.00 0.00 0.00 54 1016.2
20260508141607 15 317 1.6 6.4 0.00 0.00 0.00 66 1016.2
20260508134606 11 360 1.6 3.2 0.00 0.00 0.00 91 1016.5
20260508133058 9 360 0.0 3.2 0.00 0.00 0.00 93 1016.5
20260508131604 8 360 0.0 3.2 0.00 0.00 0.00 93 1016.5
20260508130106 6 0 0.0 3.2 0.00 0.00 0.00 93 1016.7
20260508124602 5 360 0.0 3.2 0.00 0.00 0.00 93 1016.9
20260508123058 3 0 0.0 0.0 0.00 0.00 0.00 93 1016.8
20260508121600 2 0 0.0 0.0 0.00 0.00 0.00 92 1016.8
20260508120059 2 0 0.0 0.0 0.00 0.00 0.00 92 1016.7
20260508114602 1 0 0.0 0.0 0.00 0.00 0.00 92 1016.7
20260508113125 1 0 0.0 0.0 0.00 0.00 0.00 91 1016.8
20260508111558 1 0 0.0 0.0 0.00 0.00 0.00 91 1016.7
20260508110100 1 0 0.0 0.0 0.00 0.00 0.00 91 1016.5
20260508104602 1 0 0.0 0.0 0.00 0.00 0.00 91 1016.4
20260508103107 1 0 0.0 0.0 0.00 0.00 0.00 91 1016.3
20260508101600 1 0 0.0 0.0 0.00 0.00 0.00 90 1016.2
20260508100100 1 0 0.0 0.0 0.00 0.00 0.00 91 1016.2
20260508094558 1 0 0.0 0.0 0.00 0.00 0.00 90 1016.0
20260508093059 1 0 0.0 0.0 0.00 0.00 0.00 90 1016.1
20260508091600 1 0 0.0 0.0 0.00 0.00 0.00 90 1015.9
20260508084559 2 0 0.0 0.0 0.00 0.00 0.00 90 1015.9
20260508083058 2 0 0.0 0.0 0.00 0.00 0.00 90 1015.7
20260508081610 2 0 0.0 0.0 0.00 0.00 0.00 90 1015.7
20260508080059 2 0 0.0 0.0 0.00 0.00 0.00 90 1015.7
20260508074602 2 0 0.0 0.0 0.00 0.00 0.00 90 1015.7
20260508073107 2 0 0.0 0.0 0.00 0.00 0.00 90 1015.7
20260508071601 2 0 0.0 0.0 0.00 0.00 0.00 89 1015.6
20260508064609 2 0 0.0 0.0 0.00 0.00 0.00 89 1015.7
20260508063105 3 0 0.0 0.0 0.00 0.00 0.00 89 1015.8
20260508061603 3 0 0.0 0.0 0.00 0.00 0.00 89 1015.8
20260508054625 3 0 0.0 0.0 0.00 0.00 0.00 88 1015.8
20260508053115 3 0 0.0 0.0 0.00 0.00 0.00 88 1015.8
20260508051602 3 0 0.0 0.0 0.00 0.00 0.00 88 1015.8
20260508050101 3 0 0.0 0.0 0.00 0.00 0.00 87 1015.7
20260508044600 4 0 0.0 0.0 0.00 0.00 0.00 87 1015.7
20260508043101 4 0 0.0 0.0 0.00 0.00 0.00 87 1015.7
20260508041556 5 0 0.0 0.0 0.00 0.00 0.00 86 1015.7
20260508040106 5 0 0.0 0.0 0.00 0.00 0.00 86 1015.7
20260508034600 5 0 0.0 0.0 0.00 0.00 0.00 85 1015.8
20260508033059 5 0 0.0 0.0 0.00 0.00 0.00 84 1015.7
20260508031606 6 0 0.0 0.0 0.00 0.00 0.00 84 1015.7
20260508030107 6 0 0.0 0.0 0.00 0.00 0.00 83 1015.6
20260508024601 6 0 0.0 0.0 0.00 0.00 0.00 82 1015.4
20260508023101 7 0 0.0 0.0 0.00 0.00 0.00 81 1015.1
20260508021605 7 0 0.0 0.0 0.00 0.00 0.00 80 1015.0
20260508014557 8 0 0.0 0.0 0.00 0.00 0.00 77 1014.5
20260508013059 8 0 0.0 0.0 0.00 0.00 0.00 75 1014.4
20260508011611 9 0 0.0 0.0 0.00 0.00 0.00 74 1014.0
20260508010103 10 0 0.0 1.6 0.00 0.00 0.00 70 1013.8
20260508004600 11 0 0.0 3.2 0.00 0.00 0.00 69 1013.8
20260508003100 11 266 0.0 3.2 0.00 0.00 0.00 67 1013.6
20260508001600 12 360 0.0 3.2 0.00 0.00 0.00 64 1013.5
20260508000121 13 0 0.0 3.2 0.00 0.00 0.00 63 1013.2
20260507234557 14 302 1.6 9.7 0.00 0.00 0.00 48 1013.0
20260507233100 15 0 0.0 8.0 0.00 0.00 0.00 52 1012.7
20260507231614 16 360 0.0 8.0 0.00 0.00 0.00 40 1012.8
20260507230101 17 16 1.6 9.7 0.00 0.00 0.00 47 1012.7
20260507224559 17 263 0.0 16.1 0.00 0.00 0.00 43 1012.8
20260507223103 17 303 3.2 14.5 0.00 0.00 0.00 41 1012.6
20260507221603 17 360 4.8 17.7 0.00 0.00 0.00 38 1012.4
20260507220059 18 230 3.2 9.7 0.00 0.00 0.00 38 1012.3
20260507214558 18 360 3.2 12.9 0.00 0.00 0.00 38 1012.1
20260507213057 18 0 0.0 16.1 0.00 0.00 0.00 41 1012.0
20260507211609 18 360 4.8 16.1 0.00 0.00 0.00 39 1011.9
20260507204559 18 0 4.8 14.5 0.00 0.00 0.00 45 1011.8
20260507203100 18 360 3.2 11.3 0.00 0.00 0.00 40 1011.8
20260507201557 18 360 3.2 14.5 0.00 0.00 0.00 41 1011.8
20260507200103 18 360 3.2 16.1 0.00 0.00 0.00 41 1011.8
20260507194557 17 360 3.2 9.7 0.00 0.03 0.00 48 1011.9
20260507193101 17 360 4.8 14.5 0.00 0.03 0.00 44 1012.0
20260507191559 17 360 1.6 9.7 0.00 0.03 0.00 49 1012.1
20260507190100 17 360 3.2 12.9 0.00 0.03 0.00 45 1012.3
20260507184559 17 360 3.2 9.7 0.00 0.03 0.00 47 1012.4
20260507183059 17 360 4.8 16.1 0.00 0.03 0.00 46 1012.7
20260507181600 17 360 8.0 19.3 0.00 0.03 0.00 49 1012.8
20260507180107 16 360 3.2 14.5 0.00 0.03 0.00 51 1012.8
20260507174636 17 360 3.2 9.7 0.00 0.03 0.00 51 1013.0
20260507173058 17 351 3.2 12.9 0.00 0.03 0.00 53 1013.0
20260507171619 16 159 3.2 12.9 0.00 0.03 0.00 51 1013.3
20260507164601 17 360 1.6 9.7 0.00 0.03 0.00 56 1013.3
20260507163100 15 360 0.0 8.0 0.00 0.03 0.00 57 1013.5
20260507161559 15 360 1.6 6.4 0.00 0.03 0.00 58 1013.6
20260507160117 15 360 1.6 8.0 0.00 0.03 0.00 57 1013.5
20260507154558 15 322 1.6 9.7 0.00 0.03 0.00 65 1013.8
20260507153059 15 360 3.2 14.5 0.00 0.03 0.00 57 1013.8